[[{"header":{"parameterUnit":"m.s-1","parameterCategory":1,"la1":30.2991,"la2":30.254,"lo1":-89.0895,"lo2":-89.0444,"dy":0.0017,"dx":0.0017,"nx":28,"ny":28,"refTime":"2024-02-15T09:00:00:Z","depth":0,"parameterNumber":2,"parameterNumberName":"U-component_of_WINDS"},"data":[0,0,0,0,0,0,0,0,0,0,0,0,0,0,0,0,0,0,0,0,0,0,0,0,0,0,0,0,0,0,0,0,0,0,0,0,0,0,0,0,0,0,0,0,0,0,0,0,0,0,0,0,0,0,0,0,0,0,0.2175,0.2175,0,0.2165,0.2165,0.2164,0.2177,0.2177,0.2178,0.2178,0.2166,0.2166,0.2165,0,0,0,0,0,0,0,0,0,0,0,0,0,0.2205,0.2205,0.2175,0.2175,0.2175,0.2165,0.2165,0.2164,0.2177,0.2177,0.2178,0.2178,0.2167,0.2166,0.2165,0,0,0,0,0,0,0,0,0,0,0,0,0,0.2193,0.2204,0.2176,0.218,0.218,0.2165,0.2165,0.2164,0.2176,0.2177,0.2178,0.2178,0.2167,0.2166,0.2165,0.2144,0,0,0.2161,0.2161,0,0,0,0,0,0,0,0,0.2194,0.2192,0.2179,0.218,0.218,0.2173,0.2171,0.2157,0.2176,0.2178,0.2178,0.2179,0.2168,0.2167,0.2163,0.2143,0.2143,0.2161,0.216,0.216,0.216,0,0,0,0,0,0,0,0.2195,0.2192,0.2171,0.2179,0.218,0.2182,0.2181,0.2168,0.2169,0.2178,0.2179,0.2177,0.2168,0.2164,0.2163,0.2143,0.2161,0.216,0.2159,0.2159,0.2103,0.2103,0,0,0,0,0,0,0.2195,0.2193,0.2172,0.2171,0.2189,0.2181,0.218,0.2174,0.2169,0.2169,0.2177,0.2178,0.2166,0.2164,0.2163,0.2137,0.216,0.2159,0.2158,0.2104,0.2103,0.2102,0,0,0,0,0,0,0.2196,0.2193,0.2172,0.2182,0.218,0.218,0.2173,0.2174,0.217,0.2168,0.2168,0.2173,0.2166,0.2164,0.2148,0.2136,0.2158,0.2157,0.2105,0.2104,0.2103,0.2085,0,0,0,0,0,0,0.2196,0.2193,0.2186,0.2182,0.2179,0.2158,0.2173,0.2173,0.2168,0.2169,0.2165,0.2164,0.2167,0.215,0.2147,0.2135,0.2157,0.2106,0.2105,0.2103,0.2087,0.2083,0.2081,0,0,0,0,0,0.2197,0.2181,0.2185,0.2183,0.217,0.2157,0.2156,0.2159,0.2167,0.2159,0.2158,0.2165,0.2138,0.2148,0.2145,0.2133,0.2107,0.2105,0.2103,0.2088,0.2084,0.2081,0,0,0,0,0,0,0.2184,0.2181,0.2185,0.2168,0.2163,0.2159,0.215,0.2155,0.2147,0.2149,0.2153,0.2151,0.2134,0.2132,0.2143,0.2111,0.2124,0.2121,0.2113,0.211,0.2107,0.2107,0.2156,0,0,0,0,0,0.2179,0.2169,0.2167,0.2152,0.2149,0.215,0.2144,0.2147,0.2142,0.214,0.2138,0.2132,0.2122,0.2116,0.2107,0.2087,0.2085,0.2077,0.2074,0.2071,0.2069,0.2056,0.2052,0.2096,0.2096,0.2097,0,0,0.2168,0.2165,0.2159,0.2149,0.2145,0.2135,0.2148,0.2136,0.2128,0.2138,0.2122,0.2121,0.2115,0.2096,0.2087,0.2094,0.2056,0.2069,0.2067,0.2066,0.2054,0.2049,0.2046,0.2095,0.2095,0.2096,0,0,0.2143,0.2141,0.2127,0.2123,0.2117,0.2118,0.2114,0.211,0.2109,0.2093,0.21,0.209,0.2074,0.2069,0.2064,0.2036,0.2041,0.2033,0.2017,0.2005,0.2001,0.1998,0.1986,0.1982,0.2031,0.2031,0.2031,0,0.2131,0.2115,0.2119,0.2107,0.2101,0.211,0.2095,0.2091,0.2082,0.2078,0.2085,0.2064,0.2061,0.204,0.2033,0.203,0.2025,0.2033,0.2001,0.1998,0.1995,0.1984,0.198,0.203,0.203,0.203,0.203,0,0.2099,0.2088,0.2078,0.2069,0.2063,0.2049,0.205,0.2043,0.2046,0.2045,0.2029,0.2025,0.2015,0.201,0.2013,0.1989,0.1993,0.2001,0.2013,0.199,0.1979,0.1975,0.2028,0.2029,0.2029,0.2029,0,0,0.2065,0.2058,0.2054,0.205,0.2044,0.2035,0.2021,0.2011,0.2004,0.1998,0.1986,0.1972,0.1978,0.1973,0.1975,0.1965,0.194,0.1973,0.1973,0.1966,0.1912,0.1905,0.19,0.1944,0.1943,0.1943,0.1912,0,0.2039,0.2015,0.2018,0.1995,0.1984,0.1992,0.198,0.1974,0.1973,0.1963,0.1962,0.1951,0.1961,0.1958,0.1948,0.1945,0.1929,0.1948,0.1932,0.1931,0.1932,0.1895,0.1889,0.186,0.1908,0.1907,0.1907,0,0.2005,0.1997,0.1973,0.1967,0.1963,0.1952,0.1942,0.1933,0.1927,0.1926,0.192,0.1924,0.1909,0.1923,0.1902,0.1914,0.1908,0.1906,0.1904,0.1902,0.1917,0.1891,0.1851,0.1846,0.1901,0.1901,0.1902,0,0.1981,0.1964,0.1947,0.1943,0.1937,0.1929,0.1925,0.192,0.1913,0.1904,0.19,0.189,0.1884,0.1876,0.1876,0.1886,0.1854,0.1868,0.1853,0.1853,0.1845,0.1845,0.1802,0.1843,0.1843,0.1843,0.1843,0,0.195,0.1935,0.1936,0.1925,0.1908,0.1911,0.1894,0.1891,0.1886,0.1874,0.1881,0.187,0.1872,0.1861,0.1861,0.1843,0.1841,0.1839,0.1839,0.1838,0.1838,0.1833,0.1834,0.1842,0.1842,0.1843,0.1843,0,0.192,0.192,0.1902,0.1897,0.1895,0.1882,0.1878,0.1867,0.1867,0.1852,0.1848,0.1847,0.1834,0.1834,0.1819,0.182,0.1797,0.18,0.1799,0.1799,0.1783,0.1784,0.1734,0.1727,0.1774,0.1773,0.1773,0,0.19,0.1888,0.1881,0.1874,0.187,0.1859,0.1852,0.1854,0.1846,0.1837,0.1827,0.1815,0.1805,0.1784,0.1781,0.1769,0.1771,0.1754,0.1769,0.1768,0.1769,0.1769,0.1767,0.1751,0.1751,0.175,0.175,0,0.1863,0.1864,0.1854,0.1843,0.1834,0.1826,0.1819,0.1812,0.1814,0.1805,0.1791,0.1783,0.1768,0.1755,0.1743,0.1739,0.1744,0.1745,0.1741,0.1739,0.1738,0.1736,0.1789,0.1746,0.1747,0.1747,0.1747,0.1747,0.1837,0.1826,0.1819,0.1807,0.1802,0.1794,0.1784,0.1781,0.177,0.1758,0.176,0.1744,0.1737,0.1722,0.1717,0.1704,0.171,0.1704,0.1702,0.17,0.1698,0.1741,0.1702,0.1703,0.1703,0.1703,0.1703,0,0.1799,0.1795,0.1784,0.1773,0.1763,0.1769,0.1761,0.1752,0.1738,0.1731,0.1721,0.1705,0.1692,0.1688,0.1675,0.1666,0.1667,0.1662,0.1662,0.1661,0.1694,0.1698,0.1661,0.1661,0.1661,0.1661,0.1661,0.1661,0.1779,0.176,0.176,0.1738,0.1734,0.1719,0.1714,0.1706,0.17,0.1682,0.1671,0.1669,0.1662,0.1649,0.1637,0.1636,0.163,0.1624,0.1624,0.1655,0.1659,0.1663,0.1667,0.1623,0.1623,0.1591,0.1591,0.1591]},{"header":{"parameterUnit":"m.s-1","parameterCategory":1,"la1":30.2991,"la2":30.254,"lo1":-89.0895,"lo2":-89.0444,"dy":0.0017,"dx":0.0017,"nx":28,"ny":28,"refTime":"2024-02-15T09:00:00:Z","depth":0,"parameterNumber":3,"parameterNumberName":"V-component_of_WINDS"},"data":[0,0,0,0,0,0,0,0,0,0,0,0,0,0,0,0,0,0,0,0,0,0,0,0,0,0,0,0,0,0,0,0,0,0,0,0,0,0,0,0,0,0,0,0,0,0,0,0,0,0,0,0,0,0,0,0,0,0,0.4929,0.4929,0,0.4855,0.4854,0.4853,0.4825,0.4826,0.4826,0.4826,0.4745,0.4742,0.474,0,0,0,0,0,0,0,0,0,0,0,0,0,0.5043,0.5041,0.4929,0.4928,0.4928,0.4855,0.4854,0.4853,0.4825,0.4826,0.4826,0.4826,0.4745,0.4743,0.474,0,0,0,0,0,0,0,0,0,0,0,0,0,0.4983,0.504,0.493,0.4905,0.4902,0.4855,0.4854,0.4852,0.4825,0.4826,0.4826,0.4826,0.4746,0.4743,0.4739,0.4709,0,0,0.4728,0.4727,0,0,0,0,0,0,0,0,0.4987,0.4979,0.491,0.4907,0.4903,0.485,0.4864,0.4804,0.4825,0.4854,0.4826,0.4827,0.4779,0.4773,0.4758,0.4705,0.4702,0.4728,0.4726,0.4724,0.4723,0,0,0,0,0,0,0,0.4991,0.4982,0.49,0.4909,0.4905,0.4896,0.4888,0.4852,0.4815,0.4852,0.485,0.4842,0.4777,0.4761,0.4756,0.4701,0.4728,0.4725,0.4723,0.4721,0.4618,0.4618,0,0,0,0,0,0,0.5,0.4986,0.4902,0.4897,0.4947,0.4894,0.4885,0.4867,0.4816,0.4808,0.4841,0.4841,0.4767,0.476,0.4753,0.4713,0.4724,0.4721,0.4719,0.4619,0.4618,0.4618,0,0,0,0,0,0,0.5002,0.4993,0.4905,0.4941,0.4929,0.4892,0.4871,0.4865,0.4849,0.4808,0.48,0.4832,0.4767,0.4758,0.472,0.471,0.4719,0.4716,0.4619,0.4619,0.4618,0.4635,0,0,0,0,0,0,0.5006,0.4994,0.4983,0.4941,0.4927,0.4876,0.4871,0.4863,0.4843,0.4842,0.4797,0.479,0.4767,0.4726,0.4717,0.4705,0.4713,0.462,0.4619,0.4618,0.4635,0.4634,0.4634,0,0,0,0,0,0.501,0.499,0.4983,0.4973,0.4914,0.4875,0.4867,0.4842,0.4843,0.4831,0.4804,0.4791,0.4713,0.4722,0.4712,0.4699,0.4621,0.4619,0.4618,0.4635,0.4634,0.4634,0,0,0,0,0,0,0.503,0.4984,0.4976,0.4942,0.4913,0.4871,0.4855,0.4843,0.4812,0.4811,0.478,0.477,0.4735,0.4713,0.4724,0.4666,0.4666,0.4662,0.4682,0.4681,0.4681,0.4687,0.471,0,0,0,0,0,0.5031,0.5005,0.4966,0.4939,0.4925,0.4893,0.4875,0.4859,0.4826,0.4814,0.4784,0.4752,0.472,0.4699,0.4668,0.4632,0.4621,0.4617,0.4617,0.4617,0.4614,0.4592,0.459,0.4613,0.4613,0.4613,0,0,0.5032,0.5003,0.4989,0.4943,0.4918,0.4891,0.4883,0.4854,0.4832,0.4808,0.4772,0.4749,0.4711,0.4674,0.4656,0.4655,0.4606,0.4616,0.4616,0.4613,0.4591,0.4589,0.4587,0.4613,0.4613,0.4613,0,0,0.5019,0.4996,0.4971,0.4947,0.4911,0.4889,0.4883,0.4843,0.4827,0.479,0.4772,0.4745,0.4691,0.4664,0.4643,0.4621,0.4607,0.4611,0.4609,0.4588,0.4586,0.4584,0.4575,0.4572,0.4608,0.4608,0.4608,0,0.5024,0.4983,0.4959,0.4932,0.4911,0.489,0.4864,0.4841,0.4796,0.4781,0.4781,0.4712,0.4685,0.4641,0.4635,0.462,0.4611,0.4616,0.4589,0.4587,0.4584,0.4575,0.4572,0.4609,0.4609,0.4609,0.4609,0,0.4991,0.4963,0.4947,0.4905,0.4883,0.4856,0.4826,0.4806,0.4792,0.477,0.4731,0.4698,0.4659,0.4648,0.4632,0.4601,0.4601,0.4595,0.4594,0.4583,0.4574,0.457,0.461,0.461,0.4609,0.4609,0,0,0.4988,0.4934,0.4929,0.4909,0.4868,0.4844,0.4816,0.4779,0.4762,0.4731,0.4705,0.466,0.4654,0.4631,0.4612,0.4594,0.4577,0.459,0.4588,0.4588,0.4539,0.4543,0.4539,0.4568,0.4567,0.4567,0.4541,0,0.4969,0.492,0.4897,0.4856,0.4829,0.4809,0.4783,0.4754,0.4733,0.4705,0.468,0.4649,0.4644,0.4629,0.461,0.4583,0.4566,0.4584,0.4542,0.4541,0.4551,0.4535,0.4539,0.4517,0.4538,0.4537,0.4537,0,0.4941,0.4912,0.4869,0.483,0.4818,0.4796,0.476,0.4735,0.47,0.4686,0.466,0.4642,0.4609,0.4611,0.4565,0.4577,0.4559,0.4542,0.4541,0.4535,0.4538,0.4528,0.451,0.4506,0.4531,0.4531,0.4532,0,0.4942,0.4892,0.486,0.4844,0.4798,0.4783,0.4763,0.4729,0.4708,0.4676,0.4662,0.4626,0.4606,0.4578,0.4551,0.4555,0.4507,0.4506,0.4492,0.4493,0.4482,0.4483,0.446,0.4472,0.4472,0.4472,0.4472,0,0.4923,0.4897,0.486,0.484,0.481,0.4784,0.4754,0.4732,0.4702,0.4676,0.4656,0.4631,0.4597,0.4568,0.4546,0.451,0.4501,0.4487,0.4482,0.4489,0.4491,0.4475,0.4476,0.4471,0.4471,0.4471,0.4471,0,0.4919,0.4894,0.4857,0.4817,0.4806,0.4786,0.475,0.4729,0.4707,0.4674,0.4665,0.4629,0.4594,0.4564,0.4517,0.4502,0.4464,0.4458,0.4477,0.4473,0.4461,0.4462,0.4427,0.442,0.4437,0.4437,0.4437,0,0.4909,0.4889,0.4847,0.4829,0.481,0.4781,0.476,0.4732,0.4711,0.467,0.4654,0.4617,0.4587,0.453,0.4499,0.4463,0.4455,0.4445,0.4449,0.4456,0.4453,0.4455,0.4452,0.4444,0.4444,0.4444,0.4444,0,0.4892,0.488,0.4852,0.4819,0.4795,0.4767,0.4738,0.4724,0.4691,0.4668,0.4632,0.4609,0.4561,0.4524,0.4485,0.4462,0.4447,0.4443,0.4438,0.4444,0.4456,0.4449,0.4475,0.4444,0.4444,0.4444,0.4444,0.4444,0.4883,0.4864,0.4832,0.4801,0.4777,0.4751,0.4729,0.4704,0.4675,0.4635,0.462,0.4584,0.4548,0.4494,0.4471,0.444,0.4438,0.4431,0.4429,0.4427,0.4428,0.4462,0.4433,0.4433,0.4433,0.4433,0.4433,0,0.4865,0.4843,0.4815,0.4776,0.4751,0.4742,0.4709,0.4688,0.4657,0.4626,0.4597,0.4555,0.452,0.4486,0.4448,0.443,0.4422,0.4421,0.4421,0.4416,0.4432,0.444,0.4428,0.4428,0.4428,0.4428,0.4428,0.4428,0.4852,0.4819,0.4804,0.4758,0.4736,0.4701,0.4684,0.4659,0.4634,0.4589,0.456,0.4539,0.4506,0.4466,0.4432,0.4423,0.4409,0.441,0.4399,0.4414,0.4415,0.4416,0.4423,0.4407,0.4407,0.4385,0.4385,0.4385]}]]